DW4989 Weather Reports


time (UTC)temp
C
wind
direction
speed
KPH
gust
KPH
rain 1hr
cm
rain 24hr
cm
rain mn
cm
humidity
%
barometer
mb
20191017030011 5 199 0.0 1.6 0.00 0.00 0.00 85 1019.2
20191017024525 5 91 0.0 3.2 0.00 0.00 0.00 82 1019.2
20191017023029 5 78 0.0 3.2 0.00 0.00 0.00 78 1019.3
20191017021530 5 102 0.0 4.8 0.00 0.00 0.00 79 1019.2
20191017020037 6 90 0.0 3.2 0.00 0.00 0.00 80 1019.2
20191017014504 6 91 0.0 4.8 0.00 0.00 0.00 79 1019.3
20191017013019 7 138 0.0 1.6 0.00 0.00 0.00 72 1019.4
20191017004509 10 74 3.2 4.8 0.00 0.00 0.00 65 1019.4
20191017003003 11 95 1.6 4.8 0.00 0.00 0.00 60 1019.6
20191017001647 12 88 3.2 6.4 0.00 0.00 0.00 58 1019.4
20191017000242 13 107 3.2 8.0 0.00 0.00 0.00 49 1019.4
20191016234714 15 98 3.2 8.0 0.00 0.00 0.00 46 1019.4
20191016233304 16 109 3.2 12.9 0.00 0.00 0.00 42 1019.6
20191016231647 16 100 4.8 11.3 0.00 0.00 0.00 40 1019.8
20191016230216 17 110 9.7 20.9 0.00 0.00 0.00 37 1020.0
20191016224611 17 144 3.2 14.5 0.00 0.00 0.00 39 1020.1
20191016223138 16 211 4.8 12.9 0.00 0.00 0.00 39 1020.3
20191016221712 16 176 8.0 16.1 0.00 0.00 0.00 38 1020.2
20191016220140 17 157 4.8 14.5 0.00 0.00 0.00 38 1020.6
20191016214734 17 207 11.3 17.7 0.00 0.00 0.00 36 1020.7
20191016213237 18 207 9.7 16.1 0.00 0.00 0.00 34 1021.0
20191016211601 17 238 9.7 19.3 0.00 0.00 0.00 34 1021.2
20191016210104 17 129 8.0 17.7 0.00 0.00 0.00 34 1021.2
20191016204541 17 219 14.5 19.3 0.00 0.00 0.00 36 1021.5
20191016203106 17 190 9.7 17.7 0.00 0.00 0.00 37 1021.5
20191016201530 16 214 9.7 17.7 0.00 0.00 0.00 39 1022.0
20191016200046 16 219 12.9 17.7 0.00 0.00 0.00 37 1022.4
20191016194557 16 173 11.3 20.9 0.00 0.00 0.00 40 1022.6
20191016193028 15 224 14.5 22.5 0.00 0.00 0.00 38 1022.6
20191016191528 15 152 6.4 22.5 0.00 0.00 0.00 40 1023.1
20191016190027 15 224 12.9 20.9 0.00 0.00 0.00 41 1023.3
20191016184527 14 216 12.9 25.7 0.00 0.00 0.00 39 1023.9
20191016183015 14 177 8.0 20.9 0.00 0.00 0.00 41 1024.1
20191016181507 13 216 11.3 17.7 0.00 0.00 0.00 42 1024.6
20191016180005 12 123 8.0 22.5 0.00 0.00 0.00 46 1024.9
20191016174728 12 120 8.0 17.7 0.00 0.00 0.00 49 1024.9
20191016173148 12 188 4.8 16.1 0.00 0.00 0.00 51 1025.3
20191016171648 11 217 11.3 17.7 0.00 0.00 0.00 51 1025.5
20191016170140 10 160 11.3 20.9 0.00 0.00 0.00 52 1025.7
20191016164715 10 205 11.3 22.5 0.00 0.00 0.00 55 1025.9
20191016163104 9 224 4.8 16.1 0.00 0.00 0.00 63 1026.1
20191016161611 7 109 3.2 11.3 0.00 0.00 0.00 72 1026.4
20191016160048 5 111 1.6 6.4 0.00 0.00 0.00 78 1026.9
20191016154629 3 121 3.2 9.7 0.00 0.00 0.00 84 1027.3
20191016153119 3 140 3.2 9.7 0.00 0.00 0.00 83 1027.6
20191016151540 2 131 4.8 9.7 0.00 0.00 0.00 84 1027.6
20191016150023 1 81 1.6 4.8 0.00 0.00 0.00 85 1027.9
20191016144520 0 90 0.0 3.2 0.00 0.00 0.00 88 1028.0
20191016143020 0 118 1.6 4.8 0.00 0.00 0.00 88 1027.8
20191016141513 -1 84 1.6 4.8 0.00 0.00 0.00 89 1028.2
20191016140013 -1 83 0.0 1.6 0.00 0.00 0.00 88 1028.3
20191016134517 -1 54 0.0 0.0 0.00 0.00 0.00 90 1028.3
20191016133012 -2 25 0.0 0.0 0.00 0.00 0.00 91 1028.4
20191016131518 -3 25 0.0 1.6 0.00 0.00 0.00 92 1028.6
20191016130019 -3 24 0.0 0.0 0.00 0.00 0.00 93 1028.6
20191016124512 -3 25 0.0 3.2 0.00 0.00 0.00 94 1028.6
20191016123240 -3 121 0.0 1.6 0.00 0.00 0.00 93 1028.5
20191016121713 -3 121 0.0 1.6 0.00 0.00 0.00 94 1028.2
20191016114700 -3 230 0.0 0.0 0.00 0.00 0.00 94 1028.4
20191016113152 -2 230 0.0 0.0 0.00 0.00 0.00 94 1028.6
20191016111634 -3 273 0.0 0.0 0.00 0.00 0.00 93 1028.9
20191016110234 -2 281 0.0 1.6 0.00 0.00 0.00 93 1028.9
20191016104712 -2 263 0.0 1.6 0.00 0.00 0.00 94 1029.1
20191016103132 -2 248 0.0 0.0 0.00 0.00 0.00 91 1029.1
20191016101648 -2 253 0.0 0.0 0.00 0.00 0.00 93 1029.1
20191016100127 -2 253 0.0 0.0 0.00 0.00 0.00 93 1029.3
20191016094555 -2 276 0.0 4.8 0.00 0.00 0.00 91 1029.4
20191016093113 -2 263 1.6 3.2 0.00 0.00 0.00 93 1029.4
20191016091637 -1 250 0.0 3.2 0.00 0.00 0.00 91 1029.4
20191016090115 -2 281 1.6 3.2 0.00 0.00 0.00 92 1029.4
20191016084628 -1 281 1.6 4.8 0.00 0.00 0.00 92 1029.5
20191016083041 -1 261 0.0 3.2 0.00 0.00 0.00 92 1029.6
20191016081602 -1 261 0.0 1.6 0.00 0.00 0.00 92 1029.7
20191016080112 -1 271 0.0 1.6 0.00 0.00 0.00 90 1029.8
20191016074627 -1 271 0.0 3.2 0.00 0.00 0.00 92 1029.8
20191016073127 -1 262 0.0 1.6 0.00 0.00 0.00 91 1029.9
20191016071608 -1 261 1.6 4.8 0.00 0.00 0.00 89 1029.8
20191016070101 -1 279 3.2 4.8 0.00 0.00 0.00 91 1030.0
20191016064531 0 294 4.8 11.3 0.00 0.00 0.00 89 1030.0
20191016063045 0 288 1.6 6.4 0.00 0.00 0.00 88 1029.9
20191016061526 -1 279 0.0 4.8 0.00 0.00 0.00 89 1030.1
20191016060020 -1 303 0.0 3.2 0.00 0.00 0.00 88 1029.9
20191016054521 -1 300 4.8 6.4 0.00 0.00 0.00 88 1029.9
20191016053016 -1 350 0.0 4.8 0.00 0.00 0.00 85 1029.9
20191016051508 0 326 0.0 1.6 0.00 0.00 0.00 86 1029.7
20191016050005 0 28 0.0 1.6 0.00 0.00 0.00 87 1029.8
20191016044631 0 10 0.0 4.8 0.00 0.00 0.00 84 1029.8
20191016043139 0 24 3.2 6.4 0.00 0.00 0.00 84 1029.6
20191016041755 1 17 1.6 4.8 0.00 0.00 0.00 80 1029.6
20191016040153 2 18 1.6 4.8 0.00 0.00 0.00 78 1029.7
20191016034640 2 277 1.6 6.4 0.00 0.00 0.00 77 1029.9
20191016033104 3 286 3.2 4.8 0.00 0.00 0.00 75 1030.0
20191016031658 4 307 3.2 9.7 0.00 0.00 0.00 72 1029.6